Date String (YYYY-MM-DD hh:mm:ss) UTC,Instrument flags,absolute air pressure of the measurement (hPa),sample flow rate (lpm),inlet stack bypass flow (lpm),air temperature of the measurement (°C),ambient temperature measured by the external sensor (°C),aerosol sample conditioner tube jacket temperature (°C),OPC LED temperature (°C),internal box temperature (°C),relative humidity of the measurement (%),span deviation,mass concentration of particles derived from Lorenz-Mie calculation of OPC scattering (μg/m³),mass concentration of particles derived from Lorenz-Mie calculation of OPC scattering (μg/m³),mass concentration of particles derived from Lorenz-Mie calculation of OPC scattering (μg/m³)
DateTimeUTC,F1_M11,P_M11,Q1_M11,Q2_M11,T1_M11,T2_M11,T3_M11,T4_M11,T5_M11,U1_M11,ZSPAN_M11,X0_M11,X2_M11,X1_M11
2023-09-02 13:00:00,SystemResetWarning,0833.4,4.99,000.00,028.1,026.2,000.0,036.6,029.7,25.3,0000.0,0008.41,0004.09,0003.39
2023-09-02 13:01:00,SystemResetWarning,0833.4,5.00,000.00,028.2,026.5,000.0,036.6,029.7,25.1,0000.0,0008.35,0004.06,0003.38
2023-09-02 13:02:00,SystemResetWarning,0833.4,5.00,000.00,028.2,026.7,000.0,036.6,029.8,25.2,0000.0,0008.36,0004.04,0003.38
2023-09-02 13:03:00,SystemResetWarning,0833.4,5.00,000.00,028.2,026.8,000.0,036.6,029.8,25.2,0000.0,0008.12,0004.00,0003.38
2023-09-02 13:04:00,SystemResetWarning,0833.4,5.00,000.00,028.2,027.0,000.0,036.6,029.9,25.2,0000.0,0007.61,0003.95,0003.39
2023-09-02 13:05:00,SystemResetWarning,0833.4,5.00,000.00,028.3,027.1,000.0,036.7,029.9,25.1,0000.0,0008.06,0003.92,0003.38
2023-09-02 13:06:00,SystemResetWarning,0833.4,4.99,000.00,028.3,027.2,000.0,036.7,030.0,25.1,0000.0,0008.62,0003.94,0003.38
2023-09-02 13:07:00,SystemResetWarning,0833.4,5.00,000.00,028.4,027.3,000.0,036.7,030.0,25.3,0000.0,0008.79,0003.97,0003.37
2023-09-02 13:08:00,SystemResetWarning,0833.4,5.00,000.00,028.4,027.4,000.0,036.7,030.1,25.2,0000.0,0009.00,0003.99,0003.37
2023-09-02 13:09:00,SystemResetWarning,0833.4,4.98,000.00,028.4,026.5,000.0,036.7,029.9,25.1,0000.0,0008.99,0003.98,0003.36
2023-09-02 13:10:00,SystemResetWarning,0833.4,5.00,000.00,028.3,024.9,000.0,036.6,029.3,25.3,0000.0,0009.04,0003.99,0003.37
2023-09-02 13:11:00,SystemResetWarning,0833.5,5.00,000.00,028.1,024.2,000.0,036.5,029.2,25.4,0000.0,0009.31,0004.03,0003.39
2023-09-02 13:12:00,SystemResetWarning,0833.4,5.01,000.00,028.0,024.4,000.0,036.5,029.1,25.7,0000.0,0009.96,0004.07,0003.40
2023-09-02 13:13:00,SystemResetWarning,0833.4,5.01,000.00,028.0,024.8,000.0,036.5,029.2,25.9,0000.0,0010.09,0004.08,0003.41
2023-09-02 13:14:00,SystemResetWarning,0833.4,5.00,000.00,028.0,025.2,000.0,036.5,029.3,25.9,0000.0,0010.06,0004.11,0003.42
2023-09-02 13:15:00,SystemResetWarning,0833.4,5.00,000.00,028.0,025.6,000.0,036.5,029.4,26.0,0000.0,0010.23,0004.18,0003.43
2023-09-02 13:16:00,SystemResetWarning,0833.4,5.00,000.00,028.0,025.9,000.0,036.5,029.5,26.0,0000.0,0009.82,0004.26,0003.44
2023-09-02 13:17:00,SystemResetWarning,0833.5,5.01,000.00,028.0,026.2,000.0,036.5,029.6,26.0,0000.0,0009.29,0004.28,0003.45
2023-09-02 13:18:00,SystemResetWarning,0833.5,5.00,000.00,028.1,026.4,000.0,036.5,029.7,26.0,0000.0,0009.21,0004.29,0003.47
2023-09-02 13:19:00,SystemResetWarning,0833.5,5.00,000.00,028.1,026.6,000.0,036.5,029.7,25.6,0000.0,0009.51,0004.30,0003.48
2023-09-02 13:20:00,SystemResetWarning,0833.6,4.99,000.00,028.1,026.8,000.0,036.5,029.8,25.7,0000.0,0009.63,0004.32,0003.50
2023-09-02 13:21:00,SystemResetWarning,0833.6,5.00,000.00,028.2,026.9,000.0,036.5,029.8,25.7,0000.0,0010.28,0004.34,0003.50
2023-09-02 13:22:00,SystemResetWarning,0833.6,5.01,000.00,028.2,027.1,000.0,036.6,029.9,25.7,0000.0,0009.90,0004.31,0003.50
2023-09-02 13:23:00,SystemResetWarning,0833.6,5.00,000.00,028.2,027.2,000.0,036.6,029.9,25.7,0000.0,0009.24,0004.31,0003.51
2023-09-02 13:24:00,SystemResetWarning,0833.6,5.01,000.00,028.3,027.3,000.0,036.6,030.0,25.9,0000.0,0009.15,0004.35,0003.52
2023-09-02 13:25:00,SystemResetWarning,0833.6,5.00,000.00,028.3,027.4,000.0,036.6,030.0,25.8,0000.0,0009.27,0004.37,0003.53
2023-09-02 13:26:00,SystemResetWarning,0833.6,5.00,000.00,028.4,027.4,000.0,036.7,030.1,25.6,0000.0,0009.22,0004.37,0003.53
2023-09-02 13:27:00,SystemResetWarning,0833.6,4.99,000.00,028.4,027.4,000.0,036.7,030.1,25.5,0000.0,0009.30,0004.33,0003.51
2023-09-02 13:28:00,SystemResetWarning,0833.6,4.99,000.00,028.4,026.2,000.0,036.6,029.7,25.7,0000.0,0009.31,0004.34,0003.51
2023-09-02 13:29:00,SystemResetWarning,0833.5,5.01,000.00,028.2,024.7,000.0,036.6,029.3,26.0,0000.0,0009.45,0004.36,0003.51
2023-09-02 13:30:00,SystemResetWarning,0833.6,5.01,000.00,028.1,024.6,000.0,036.5,029.3,26.0,0000.0,0009.05,0004.34,0003.50
2023-09-02 13:31:00,SystemResetWarning,0833.5,5.00,000.00,028.1,024.8,000.0,036.5,029.2,26.1,0000.0,0008.90,0004.32,0003.50
2023-09-02 13:32:00,SystemResetWarning,0833.6,5.00,000.00,028.0,025.2,000.0,036.5,029.3,26.2,0000.0,0008.66,0004.29,0003.50
2023-09-02 13:33:00,SystemResetWarning,0833.6,5.01,000.00,028.0,025.6,000.0,036.5,029.5,26.3,0000.0,0009.02,0004.29,0003.50
2023-09-02 13:34:00,SystemResetWarning,0833.6,5.00,000.00,028.0,025.9,000.0,036.5,029.6,26.2,0000.0,0009.11,0004.29,0003.50
2023-09-02 13:35:00,SystemResetWarning,0833.7,4.99,000.00,028.1,026.2,000.0,036.5,029.6,26.2,0000.0,0009.16,0004.30,0003.50
2023-09-02 13:36:00,SystemResetWarning,0833.7,5.00,000.00,028.1,026.5,000.0,036.5,029.7,26.2,0000.0,0009.16,0004.27,0003.51
2023-09-02 13:37:00,SystemResetWarning,0833.7,5.01,000.00,028.1,026.7,000.0,036.6,029.8,26.3,0000.0,0009.37,0004.22,0003.51
2023-09-02 13:38:00,SystemResetWarning,0833.7,5.01,000.00,028.2,026.9,000.0,036.6,029.8,26.4,0000.0,0009.29,0004.22,0003.51
2023-09-02 13:39:00,SystemResetWarning,0833.7,5.00,000.00,028.2,027.0,000.0,036.6,029.9,26.4,0000.0,0009.24,0004.21,0003.52
2023-09-02 13:40:00,SystemResetWarning,0833.7,4.99,000.00,028.3,027.1,000.0,036.6,030.0,26.2,0000.0,0009.49,0004.22,0003.52
2023-09-02 13:41:00,SystemResetWarning,0833.7,4.99,000.00,028.3,027.3,000.0,036.6,030.0,26.2,0000.0,0009.39,0004.19,0003.52
2023-09-02 13:42:00,SystemResetWarning,0833.7,5.00,000.00,028.4,027.4,000.0,036.7,030.1,26.5,0000.0,0009.77,0004.23,0003.51
2023-09-02 13:43:00,SystemResetWarning,0833.7,5.02,000.00,028.4,027.4,000.0,036.7,030.1,26.4,0000.0,0009.63,0004.25,0003.53
2023-09-02 13:44:00,SystemResetWarning,0833.7,4.99,000.00,028.4,026.3,000.0,036.6,029.7,26.0,0000.0,0009.53,0004.29,0003.53
2023-09-02 13:45:00,SystemResetWarning,0833.7,5.00,000.00,028.2,024.9,000.0,036.6,029.4,26.1,0000.0,0009.65,0004.28,0003.51
2023-09-02 13:46:00,SystemResetWarning,0833.7,5.01,000.00,028.2,024.8,000.0,036.5,029.4,26.6,0000.0,0009.65,0004.28,0003.51
2023-09-02 13:47:00,SystemResetWarning,0833.7,5.01,000.00,028.1,025.1,000.0,036.5,029.3,26.9,0000.0,0009.88,0004.26,0003.50
2023-09-02 13:48:00,SystemResetWarning,0833.7,5.00,000.00,028.1,025.4,000.0,036.5,029.4,26.5,0000.0,0009.87,0004.26,0003.49
2023-09-02 13:49:00,SystemResetWarning,0833.7,5.00,000.00,028.1,025.8,000.0,036.5,029.5,26.6,0000.0,0010.27,0004.26,0003.49
2023-09-02 13:50:00,SystemResetWarning,0833.7,5.00,000.00,028.1,026.1,000.0,036.5,029.6,26.9,0000.0,0011.10,0004.22,0003.48
2023-09-02 13:51:00,SystemResetWarning,0833.7,5.01,000.00,028.1,026.4,000.0,036.6,029.7,26.9,0000.0,0011.20,0004.21,0003.47
2023-09-02 13:52:00,SystemResetWarning,0833.8,5.00,000.00,028.2,026.6,000.0,036.6,029.8,26.6,0000.0,0011.60,0004.25,0003.48
2023-09-02 13:53:00,SystemResetWarning,0833.8,5.00,000.00,028.2,026.8,000.0,036.6,029.9,27.1,0000.0,0011.37,0004.23,0003.48
2023-09-02 13:54:00,SystemResetWarning,0833.8,5.00,000.00,028.2,027.0,000.0,036.6,029.9,26.6,0000.0,0011.80,0004.23,0003.46
2023-09-02 13:55:00,SystemResetWarning,0833.8,5.01,000.00,028.3,027.2,000.0,036.6,030.0,26.8,0000.0,0011.77,0004.24,0003.45
2023-09-02 13:56:00,SystemResetWarning,0833.8,5.00,000.00,028.3,027.3,000.0,036.7,030.1,26.9,0000.0,0012.19,0004.23,0003.45
2023-09-02 13:57:00,SystemResetWarning,0833.8,4.98,000.00,028.4,026.7,000.0,036.6,029.9,26.3,0000.0,0012.48,0004.23,0003.43
2023-09-02 13:58:00,SystemResetWarning,0833.7,5.01,000.00,028.3,025.2,000.0,036.5,029.5,26.5,0000.0,0012.39,0004.23,0003.42
2023-09-02 13:59:00,SystemResetWarning,0833.8,5.02,000.00,028.2,024.8,000.0,036.5,029.4,26.3,0000.0,0012.15,0004.22,0003.41
